This is the latest recevied weather packets stored in our database for station/object KI7CSN-13. If no packets are shown the sender has not sent any weather packets the latest 10 day(s).
| Time | Temp. | Humidity | Pressure | Rain* | Wind** | Luminosity | Snow |
|---|---|---|---|---|---|---|---|
| 1777938463 | 18.89° C | 20% | 979 hPa | 0 mm | - | - | - |
| 1777938162 | 19.44° C | 20% | 979 hPa | 0 mm | - | - | - |
| 1777937863 | 20° C | 20% | 978.9 hPa | 0 mm | - | - | - |
| 1777937563 | 19.44° C | 20% | 978.9 hPa | 0 mm | - | - | - |
| 1777937263 | 19.44° C | 22% | 978.9 hPa | 0 mm | - | - | - |
| 1777936963 | 20° C | 22% | 978.7 hPa | 0 mm | - | - | - |
| 1777936663 | 19.44° C | 21% | 978.9 hPa | 0 mm | - | - | - |
| 1777936363 | 19.44° C | 22% | 978.9 hPa | 0 mm | - | - | - |
| 1777936063 | 19.44° C | 21% | 978.9 hPa | 0 mm | - | - | - |
| 1777935763 | 18.89° C | 24% | 979 hPa | 0 mm | - | - | - |
| 1777935463 | 19.44° C | 22% | 979 hPa | 0 mm | - | - | - |
| 1777935163 | 19.44° C | 22% | 979 hPa | 0 mm | - | - | - |
| 1777934863 | 19.44° C | 20% | 979 hPa | 0 mm | - | - | - |
| 1777934563 | 19.44° C | 20% | 979 hPa | 0 mm | - | - | - |
| 1777934263 | 19.44° C | 22% | 979 hPa | 0 mm | - | - | - |
| 1777933963 | 20° C | 23% | 978.9 hPa | 0 mm | - | - | - |
| 1777933663 | 19.44° C | 22% | 979 hPa | 0 mm | - | - | - |
| 1777933363 | 20° C | 22% | 979 hPa | 0 mm | - | - | - |
| 1777933063 | 20° C | 22% | 979 hPa | 0 mm | - | - | - |
| 1777932763 | 20° C | 24% | 979.1 hPa | 0 mm | - | - | - |
| 1777932463 | 19.44° C | 25% | 979.1 hPa | 0 mm | - | - | - |
| 1777932163 | 19.44° C | 24% | 979.4 hPa | 0 mm | - | - | - |
| 1777931863 | 19.44° C | 24% | 979.4 hPa | 0 mm | - | - | - |
| 1777931563 | 20° C | 23% | 979.4 hPa | 0 mm | - | - | - |
| 1777931263 | 20° C | 24% | 979.5 hPa | 0 mm | - | - | - |
* Rain latest hour (hover to see other rain measurements)
** Current wind speed in m/s (hover to see current wind gust speed)